Location: Utrecht
(52.0917°N, 5.1178°E)
Time: 01:19:33
(UTC+02:00)

X-37B - Pass Details

Date: 02 July 2021
Orbit: 383 x 392 km, 45.0° (Epoch: 01 July)

Event Time Altitude Azimuth Distance (km) Brightness Sun altitude
Rises 23:23:03 0° 260° (W) 2,259 4.8 -8.9°
Reaches altitude 10° 23:26:17 10° 224° (SW) 1,402 3.3 -9.2°
Maximum altitude 23:27:20 11° 205° (SSW) 1,324 3.0 -9.2°
Drops below altitude 10° 23:28:25 10° 185° (S) 1,399 2.9 -9.3°
Enters shadow 23:28:31 10° 183° (S) 1,413 2.9 -9.3°
